Hourly Weather Damsa

Today, 17 April, Saturday

Time Temperature Precipitation Wind Pressure Humidity
00:00 +6°C° 0 mm 7 mps 732 mmHg 90%
01:00 +5°C° 0 mm 7 mps 732 mmHg 89%
02:00 +5°C° 0 mm 7 mps 732 mmHg 87%
03:00 +4°C° 0 mm 6 mps 732 mmHg 86%
04:00 +4°C° 0 mm 6 mps 733 mmHg 85%
05:00 +5°C° 0 mm 5 mps 733 mmHg 83%
06:00 +3°C° 0 mm 5 mps 734 mmHg 83%
07:00 +3°C° 0 mm 5 mps 734 mmHg 83%
08:00 +3°C° 0 mm 5 mps 735 mmHg 83%
09:00 +4°C° 0 mm 4 mps 735 mmHg 79%
10:00 +5°C° 0 mm 4 mps 735 mmHg 76%
11:00 +7°C° 0 mm 3 mps 735 mmHg 72%
12:00 +8°C° 0 mm 3 mps 735 mmHg 69%
13:00 +8°C° 0 mm 2 mps 735 mmHg 66%
14:00 +9°C° 0 mm 2 mps 735 mmHg 62%
15:00 +11°C° 0 mm 1 mps 734 mmHg 61%
16:00 +11°C° 0 mm 1 mps 734 mmHg 60%
17:00 +11°C° 0 mm 1 mps 734 mmHg 59%
18:00 +10°C° 0 mm 1 mps 734 mmHg 64%
19:00 +10°C° 0 mm 1 mps 733 mmHg 68%
20:00 +9°C° 0 mm 1 mps 733 mmHg 72%
21:00 +9°C° 0 mm 1 mps 733 mmHg 75%
22:00 +7°C° 0 mm 2 mps 733 mmHg 77%
23:00 +7°C° 0 mm 2 mps 733 mmHg 79%

Tomorrow, 18 April, Sunday

Time Temperature Precipitation Wind Pressure Humidity
00:00 +6°C° 0 mm 2 mps 732 mmHg 81%
01:00 +6°C° 0 mm 2 mps 732 mmHg 83%
02:00 +5°C° 0 mm 2 mps 731 mmHg 84%
03:00 +5°C° 0 mm 2 mps 731 mmHg 85%
04:00 +5°C° 0 mm 2 mps 731 mmHg 85%
05:00 +5°C° 0 mm 2 mps 731 mmHg 85%
06:00 +5°C° 0 mm 3 mps 730 mmHg 82%
07:00 +7°C° 0 mm 3 mps 730 mmHg 78%
08:00 +7°C° 0 mm 4 mps 730 mmHg 75%
09:00 +9°C° 0 mm 5 mps 730 mmHg 69%
10:00 +10°C° 0 mm 5 mps 729 mmHg 63%
11:00 +13°C° 0 mm 6 mps 729 mmHg 57%
12:00 +14°C° 0 mm 6 mps 728 mmHg 53%
13:00 +14°C° 0 mm 7 mps 728 mmHg 49%
14:00 +15°C° 0 mm 7 mps 727 mmHg 46%
15:00 +12°C° 0.1 mm 7 mps 728 mmHg 56%
16:00 +11°C° 0.1 mm 6 mps 728 mmHg 66%
17:00 +9°C° 0.1 mm 6 mps 728 mmHg 77%
18:00 +8°C° 0 mm 7 mps 728 mmHg 75%
19:00 +6°C° 0 mm 8 mps 729 mmHg 74%
20:00 +5°C° 0 mm 9 mps 730 mmHg 73%
21:00 +2°C° 0 mm 8 mps 730 mmHg 71%
22:00 0°C° 0 mm 8 mps 731 mmHg 69%
23:00 -2°C° 0 mm 8 mps 732 mmHg 67%

Day after tomorrow, 19 April, Monday

Time Temperature Precipitation Wind Pressure Humidity
00:00 -4°C° 0 mm 7 mps 733 mmHg 65%
01:00 -6°C° 0 mm 7 mps 733 mmHg 64%
02:00 -7°C° 0 mm 7 mps 734 mmHg 62%
03:00 -7°C° 0 mm 7 mps 735 mmHg 59%
04:00 -8°C° 0 mm 7 mps 735 mmHg 57%
05:00 -8°C° 0 mm 7 mps 736 mmHg 54%
06:00 -8°C° 0 mm 6 mps 736 mmHg 51%
07:00 -8°C° 0 mm 6 mps 736 mmHg 48%
08:00 -6°C° 0 mm 6 mps 737 mmHg 45%
09:00 -5°C° 0 mm 6 mps 737 mmHg 41%
10:00 -5°C° 0 mm 6 mps 737 mmHg 37%
11:00 -4°C° 0 mm 6 mps 737 mmHg 34%
12:00 -3°C° 0 mm 6 mps 737 mmHg 33%
13:00 -3°C° 0 mm 6 mps 737 mmHg 32%
14:00 -2°C° 0 mm 6 mps 737 mmHg 32%
15:00 -3°C° 0 mm 6 mps 737 mmHg 33%
16:00 -3°C° 0 mm 6 mps 737 mmHg 33%
17:00 -3°C° 0 mm 6 mps 737 mmHg 34%
18:00 -4°C° 0 mm 6 mps 737 mmHg 37%
19:00 -5°C° 0 mm 6 mps 738 mmHg 41%
20:00 -6°C° 0 mm 6 mps 738 mmHg 44%
21:00 -6°C° 0 mm 6 mps 738 mmHg 44%
22:00 -6°C° 0 mm 6 mps 738 mmHg 45%
23:00 -8°C° 0 mm 6 mps 738 mmHg 45%

20 April, Tuesday

Time Temperature Precipitation Wind Pressure Humidity
00:00 -8°C° 0 mm 6 mps 738 mmHg 45%
01:00 -8°C° 0 mm 6 mps 738 mmHg 45%
02:00 -8°C° 0 mm 6 mps 738 mmHg 44%
03:00 -9°C° 0 mm 6 mps 739 mmHg 45%
04:00 -9°C° 0 mm 6 mps 739 mmHg 45%
05:00 -8°C° 0 mm 5 mps 739 mmHg 46%
06:00 -9°C° 0 mm 6 mps 739 mmHg 43%
07:00 -9°C° 0 mm 6 mps 739 mmHg 39%
08:00 -8°C° 0 mm 7 mps 740 mmHg 36%
09:00 -6°C° 0 mm 6 mps 740 mmHg 34%
10:00 -5°C° 0 mm 6 mps 740 mmHg 32%
11:00 -4°C° 0 mm 6 mps 740 mmHg 30%
12:00 -4°C° 0 mm 6 mps 740 mmHg 29%
13:00 -2°C° 0 mm 5 mps 739 mmHg 29%
14:00 -1°C° 0 mm 5 mps 739 mmHg 29%
15:00 -1°C° 0 mm 4 mps 739 mmHg 29%
16:00 -1°C° 0 mm 4 mps 739 mmHg 29%
17:00 -1°C° 0 mm 4 mps 739 mmHg 29%
18:00 0°C° 0 mm 3 mps 739 mmHg 33%
19:00 -1°C° 0 mm 2 mps 739 mmHg 38%
20:00 0°C° 0 mm 1 mps 739 mmHg 42%
21:00 0°C° 0 mm 1 mps 739 mmHg 44%
22:00 -2°C° 0 mm 2 mps 739 mmHg 46%
23:00 -2°C° 0 mm 2 mps 740 mmHg 48%

21 April, Wednesday

Time Temperature Precipitation Wind Pressure Humidity
00:00 -2°C° 0 mm 2 mps 739 mmHg 49%
01:00 -2°C° 0 mm 3 mps 739 mmHg 51%
02:00 -2°C° 0 mm 3 mps 739 mmHg 52%
03:00 -2°C° 0 mm 3 mps 739 mmHg 53%
04:00 -3°C° 0 mm 4 mps 739 mmHg 54%
05:00 -3°C° 0 mm 4 mps 739 mmHg 55%
06:00 -2°C° 0 mm 5 mps 739 mmHg 51%
07:00 -2°C° 0 mm 6 mps 739 mmHg 46%
08:00 -1°C° 0 mm 7 mps 739 mmHg 42%
09:00 +2°C° 0 mm 7 mps 739 mmHg 41%
10:00 +3°C° 0 mm 7 mps 738 mmHg 40%
11:00 +5°C° 0 mm 8 mps 738 mmHg 38%
12:00 +5°C° 0 mm 8 mps 738 mmHg 39%
13:00 +6°C° 0 mm 8 mps 738 mmHg 39%
14:00 +7°C° 0 mm 8 mps 737 mmHg 39%
15:00 +8°C° 0 mm 7 mps 737 mmHg 41%
16:00 +9°C° 0 mm 7 mps 737 mmHg 43%
17:00 +9°C° 0 mm 7 mps 737 mmHg 44%
18:00 +7°C° 0 mm 6 mps 738 mmHg 55%
19:00 +6°C° 0 mm 5 mps 739 mmHg 65%
20:00 +3°C° 0 mm 5 mps 739 mmHg 75%
21:00 +3°C° 0 mm 4 mps 740 mmHg 77%
22:00 +3°C° 0 mm 4 mps 740 mmHg 78%
23:00 +1°C° 0 mm 4 mps 741 mmHg 79%

22 April, Thursday

Time Temperature Precipitation Wind Pressure Humidity
00:00 0°C° 0 mm 4 mps 741 mmHg 79%
01:00 0°C° 0 mm 3 mps 741 mmHg 79%
02:00 0°C° 0 mm 3 mps 742 mmHg 79%
03:00 -1°C° 0 mm 3 mps 742 mmHg 80%
04:00 -1°C° 0 mm 3 mps 743 mmHg 82%
05:00 -2°C° 0 mm 3 mps 743 mmHg 84%
06:00 -1°C° 0 mm 3 mps 744 mmHg 79%
07:00 0°C° 0 mm 3 mps 744 mmHg 74%
08:00 0°C° 0 mm 4 mps 745 mmHg 69%
09:00 +1°C° 0 mm 4 mps 745 mmHg 63%
10:00 +3°C° 0 mm 4 mps 745 mmHg 57%
11:00 +4°C° 0 mm 3 mps 745 mmHg 51%
12:00 +5°C° 0 mm 3 mps 746 mmHg 47%
13:00 +7°C° 0 mm 3 mps 746 mmHg 44%
14:00 +7°C° 0 mm 3 mps 746 mmHg 40%
15:00 +8°C° 0 mm 3 mps 746 mmHg 39%
16:00 +8°C° 0 mm 3 mps 746 mmHg 38%
17:00 +8°C° 0 mm 3 mps 745 mmHg 37%
18:00 +7°C° 0 mm 3 mps 746 mmHg 41%
19:00 +5°C° 0 mm 4 mps 746 mmHg 46%
20:00 +4°C° 0 mm 4 mps 746 mmHg 51%
21:00 +3°C° 0 mm 4 mps 746 mmHg 53%
22:00 +1°C° 0 mm 4 mps 746 mmHg 55%
23:00 +1°C° 0 mm 4 mps 746 mmHg 58%
Show more